ANA17 RJTT-RJOO

Flight info

Callsign ANA17
Flight time 0h 48m
Altitude 32000
Route LAXAS Y56 TOHME Y54 KOHWA Y546 AGPUK MIRAI ABENO IKOMA
Aircraft A321/M-SDE3FGHIRWY/LB1

Departure

Time 2026-05-05 12:48
Airport Tokyo Haneda International Airport (RJTT)

Arrival

Time 2026-05-05 13:37
Airport Osaka Itami International Airport (RJOO)
Time Latitude Longitude Altitude Speed Heading
2026-05-05 12:28 35.55162 139.78956 24 ft 0 kts 241°
2026-05-05 12:32 35.55162 139.78958 24 ft 2 kts 241°
2026-05-05 12:33 35.55175 139.78986 25 ft 4 kts 241°
2026-05-05 12:33 35.55188 139.79014 25 ft 4 kts 241°
2026-05-05 12:33 35.55201 139.79044 25 ft 4 kts 241°
2026-05-05 12:33 35.55205 139.79053 25 ft 0 kts 241°
2026-05-05 12:37 35.55206 139.79049 25 ft 0 kts 270°
2026-05-05 12:37 35.55209 139.79044 26 ft 3 kts 298°
2026-05-05 12:37 35.55231 139.79016 24 ft 7 kts 316°
2026-05-05 12:37 35.55282 139.78977 24 ft 9 kts 329°
2026-05-05 12:38 35.55332 139.78940 24 ft 9 kts 329°
2026-05-05 12:38 35.55372 139.78927 24 ft 6 kts
2026-05-05 12:38 35.55381 139.78931 24 ft 4 kts 18°
2026-05-05 12:38 35.55405 139.78952 24 ft 1 kts 38°
2026-05-05 12:39 35.55408 139.78955 24 ft 1 kts 38°
2026-05-05 12:39 35.55414 139.78961 24 ft 1 kts 38°
2026-05-05 12:39 35.55416 139.78963 25 ft 0 kts 38°
2026-05-05 12:40 35.55419 139.78968 24 ft 4 kts 51°
2026-05-05 12:40 35.55429 139.78990 24 ft 3 kts 57°
2026-05-05 12:40 35.55431 139.78995 24 ft 0 kts 59°
2026-05-05 12:41 35.55434 139.79000 24 ft 2 kts 59°
2026-05-05 12:41 35.55458 139.79050 24 ft 12 kts 63°
2026-05-05 12:42 35.55500 139.79138 23 ft 11 kts 39°
2026-05-05 12:42 35.55558 139.79133 25 ft 6 kts 332°
2026-05-05 12:42 35.55620 139.79088 23 ft 18 kts 329°
2026-05-05 12:42 35.55738 139.79002 23 ft 17 kts 330°
2026-05-05 12:43 35.55771 139.78980 23 ft 16 kts 330°
2026-05-05 12:43 35.55859 139.78918 25 ft 16 kts 330°
2026-05-05 12:43 35.55947 139.78856 25 ft 13 kts 331°
2026-05-05 12:43 35.56017 139.78806 25 ft 9 kts 330°
2026-05-05 12:44 35.56065 139.78773 23 ft 6 kts 331°
2026-05-05 12:44 35.56109 139.78758 23 ft 7 kts
2026-05-05 12:44 35.56141 139.78796 23 ft 6 kts 53°
2026-05-05 12:44 35.56154 139.78822 23 ft 0 kts 59°
2026-05-05 12:46 35.56156 139.78826 23 ft 3 kts 59°
2026-05-05 12:46 35.56171 139.78858 23 ft 4 kts 59°
2026-05-05 12:46 35.56187 139.78890 24 ft 3 kts 59°
2026-05-05 12:46 35.56197 139.78936 24 ft 6 kts 112°
2026-05-05 12:47 35.56188 139.78943 24 ft 0 kts 150°
2026-05-05 12:47 35.56185 139.78945 27 ft 1 kts 150°
2026-05-05 12:47 35.56173 139.78953 25 ft 7 kts 150°
2026-05-05 12:47 35.56013 139.79064 24 ft 59 kts 150°
2026-05-05 12:48 35.55457 139.79457 27 ft 122 kts 150°
2026-05-05 12:48 35.54599 139.80064 237 ft 148 kts 151°
2026-05-05 12:48 35.53726 139.80688 961 ft 144 kts 153°
2026-05-05 12:48 35.52858 139.81307 1612 ft 145 kts 154°
2026-05-05 12:49 35.51959 139.81951 2056 ft 159 kts 154°
2026-05-05 12:49 35.50934 139.82678 2339 ft 182 kts 154°
2026-05-05 12:49 35.49755 139.83500 2605 ft 209 kts 153°
2026-05-05 12:49 35.48409 139.84442 3070 ft 233 kts 153°
2026-05-05 12:50 35.46949 139.85483 3710 ft 250 kts 153°
2026-05-05 12:50 35.45393 139.86445 4603 ft 253 kts 167°
2026-05-05 12:50 35.43731 139.86402 5392 ft 255 kts 200°
2026-05-05 12:50 35.42278 139.85309 6169 ft 262 kts 219°
2026-05-05 12:51 35.40862 139.83884 7025 ft 266 kts 219°
2026-05-05 12:51 35.39409 139.82451 7829 ft 270 kts 218°
2026-05-05 12:51 35.37926 139.81010 8688 ft 273 kts 218°
2026-05-05 12:51 35.36424 139.79566 9522 ft 277 kts 218°
2026-05-05 12:52 35.34891 139.78098 10285 ft 283 kts 218°
2026-05-05 12:52 35.33280 139.76555 10573 ft 306 kts 218°
2026-05-05 12:52 35.31549 139.74896 10925 ft 323 kts 218°
2026-05-05 12:52 35.29779 139.73150 11585 ft 329 kts 219°
2026-05-05 12:53 35.28017 139.71332 12312 ft 333 kts 220°
2026-05-05 12:53 35.26251 139.69472 13082 ft 337 kts 220°
2026-05-05 12:53 35.24464 139.67579 13836 ft 341 kts 220°
2026-05-05 12:53 35.22657 139.65668 14517 ft 345 kts 220°
2026-05-05 12:54 35.18970 139.61797 15868 ft 352 kts 220°
2026-05-05 12:54 35.17102 139.59849 16573 ft 354 kts 220°
2026-05-05 12:54 35.15217 139.57883 17271 ft 357 kts 220°
2026-05-05 12:55 35.13319 139.55908 17962 ft 360 kts 220°
2026-05-05 12:55 35.11406 139.53923 18631 ft 363 kts 220°
2026-05-05 12:55 35.09530 139.51851 19222 ft 365 kts 227°
2026-05-05 12:55 35.08006 139.49377 19844 ft 366 kts 239°
2026-05-05 12:56 35.06951 139.46564 20473 ft 366 kts 251°
2026-05-05 12:56 35.06358 139.43542 21141 ft 366 kts 258°
2026-05-05 12:56 35.05858 139.40496 21804 ft 365 kts 258°
2026-05-05 12:56 35.05357 139.37459 22471 ft 365 kts 258°
2026-05-05 12:57 35.04853 139.34433 23132 ft 364 kts 258°
2026-05-05 12:57 35.04347 139.31406 23784 ft 364 kts 258°
2026-05-05 12:57 35.03838 139.28380 24313 ft 363 kts 258°
2026-05-05 12:57 35.03326 139.25361 24850 ft 362 kts 258°
2026-05-05 12:58 35.02818 139.22361 25373 ft 361 kts 258°
2026-05-05 12:58 35.02311 139.19361 25905 ft 360 kts 258°
2026-05-05 12:58 35.01808 139.16368 26431 ft 359 kts 258°
2026-05-05 12:58 35.01308 139.13383 26951 ft 359 kts 258°
2026-05-05 12:59 35.00977 139.11415 27287 ft 358 kts 258°
2026-05-05 12:59 35.00476 139.08436 27818 ft 357 kts 258°
2026-05-05 12:59 34.99978 139.05476 28347 ft 356 kts 258°
2026-05-05 13:00 34.98981 138.99574 29350 ft 354 kts 257°
2026-05-05 13:00 34.98686 138.96586 29808 ft 355 kts 264°
2026-05-05 13:01 34.98229 138.87592 30958 ft 355 kts 264°
2026-05-05 13:01 34.98071 138.84585 31254 ft 355 kts 263°
2026-05-05 13:01 34.97909 138.81572 31560 ft 357 kts 263°
2026-05-05 13:01 34.97747 138.78553 32001 ft 356 kts 263°
2026-05-05 13:02 34.97586 138.75554 32240 ft 354 kts 263°
2026-05-05 13:02 34.97430 138.72595 32291 ft 341 kts 263°
2026-05-05 13:02 34.97285 138.69767 32295 ft 330 kts 263°
2026-05-05 13:02 34.97139 138.66992 32296 ft 327 kts 263°
2026-05-05 13:03 34.96842 138.61476 32298 ft 326 kts 262°
2026-05-05 13:03 34.96538 138.55949 32296 ft 326 kts 262°
2026-05-05 13:04 34.96232 138.50468 32319 ft 326 kts 262°
2026-05-05 13:04 34.95927 138.44980 32300 ft 323 kts 262°
2026-05-05 13:05 34.95622 138.39506 32293 ft 323 kts 262°
2026-05-05 13:05 34.95316 138.34037 32285 ft 323 kts 262°
2026-05-05 13:06 34.95009 138.28565 32280 ft 323 kts 262°
2026-05-05 13:06 34.94690 138.23091 32282 ft 324 kts 262°
2026-05-05 13:07 34.94372 138.17606 32251 ft 324 kts 262°
2026-05-05 13:07 34.94054 138.12124 32254 ft 324 kts 262°
2026-05-05 13:08 34.93733 138.06637 32257 ft 324 kts 262°
2026-05-05 13:08 34.93407 138.01154 32247 ft 324 kts 262°
2026-05-05 13:09 34.93080 137.95672 32251 ft 325 kts 261°
2026-05-05 13:09 34.92753 137.90177 32259 ft 325 kts 261°
2026-05-05 13:10 34.92420 137.84683 32259 ft 325 kts 262°
2026-05-05 13:10 34.92087 137.79186 32251 ft 325 kts 261°
2026-05-05 13:11 34.91748 137.73683 32258 ft 326 kts 261°
2026-05-05 13:11 34.91362 137.68178 32255 ft 324 kts 256°
2026-05-05 13:12 34.89994 137.62993 32251 ft 322 kts 249°
2026-05-05 13:12 34.88466 137.57901 32248 ft 322 kts 249°
2026-05-05 13:13 34.86924 137.52767 32246 ft 323 kts 249°
2026-05-05 13:13 34.85386 137.47635 32248 ft 322 kts 249°
2026-05-05 13:14 34.83887 137.42482 32247 ft 323 kts 250°
2026-05-05 13:14 34.82423 137.37314 32240 ft 323 kts 250°
2026-05-05 13:15 34.81689 137.34732 32131 ft 325 kts 250°
2026-05-05 13:15 34.80948 137.32131 31888 ft 326 kts 250°
2026-05-05 13:15 34.80202 137.29523 31641 ft 327 kts 250°
2026-05-05 13:15 34.79450 137.26901 31405 ft 328 kts 250°
2026-05-05 13:16 34.78695 137.24275 31162 ft 330 kts 250°
2026-05-05 13:16 34.77941 137.21669 30926 ft 329 kts 250°
2026-05-05 13:16 34.77181 137.19042 30587 ft 322 kts 250°
2026-05-05 13:16 34.76447 137.16493 30166 ft 317 kts 250°
2026-05-05 13:17 34.75728 137.13988 29746 ft 310 kts 250°
2026-05-05 13:17 34.75023 137.11535 29362 ft 304 kts 251°
2026-05-05 13:17 34.74330 137.09126 28974 ft 298 kts 251°
2026-05-05 13:17 34.73647 137.06758 28600 ft 297 kts 251°
2026-05-05 13:18 34.72961 137.04391 28234 ft 297 kts 250°
2026-05-05 13:18 34.72268 137.02012 27865 ft 298 kts 250°
2026-05-05 13:18 34.71577 136.99636 27491 ft 299 kts 250°
2026-05-05 13:18 34.70892 136.97278 27042 ft 300 kts 250°
2026-05-05 13:19 34.70196 136.94884 26601 ft 301 kts 250°
2026-05-05 13:19 34.69495 136.92474 26167 ft 302 kts 250°
2026-05-05 13:19 34.68792 136.90059 25753 ft 304 kts 250°
2026-05-05 13:19 34.68083 136.87634 25334 ft 305 kts 250°
2026-05-05 13:20 34.67369 136.85195 24911 ft 307 kts 250°
2026-05-05 13:20 34.66655 136.82747 24503 ft 309 kts 250°
2026-05-05 13:20 34.65936 136.80280 24086 ft 310 kts 250°
2026-05-05 13:20 34.65212 136.77803 23629 ft 312 kts 250°
2026-05-05 13:21 34.64487 136.75318 23164 ft 311 kts 250°
2026-05-05 13:21 34.63765 136.72845 22753 ft 311 kts 250°
2026-05-05 13:21 34.63041 136.70377 22323 ft 310 kts 250°
2026-05-05 13:21 34.62317 136.67909 21905 ft 310 kts 250°
2026-05-05 13:22 34.61594 136.65442 21484 ft 310 kts 250°
2026-05-05 13:22 34.60870 136.62973 21055 ft 310 kts 250°
2026-05-05 13:22 34.60148 136.60507 20630 ft 310 kts 250°
2026-05-05 13:22 34.59423 136.58038 20208 ft 310 kts 249°
2026-05-05 13:23 34.58695 136.55572 19790 ft 311 kts 249°
2026-05-05 13:23 34.57964 136.53103 19384 ft 311 kts 249°
2026-05-05 13:23 34.57205 136.50546 19243 ft 330 kts 249°
2026-05-05 13:23 34.56417 136.47883 18855 ft 340 kts 249°
2026-05-05 13:24 34.55606 136.45135 17918 ft 351 kts 249°
2026-05-05 13:24 34.54789 136.42370 17531 ft 345 kts 249°
2026-05-05 13:24 34.53984 136.39648 17099 ft 340 kts 249°
2026-05-05 13:24 34.53186 136.36960 16664 ft 336 kts 248°
2026-05-05 13:25 34.52397 136.34306 16241 ft 333 kts 248°
2026-05-05 13:25 34.51669 136.31658 15814 ft 331 kts 254°
2026-05-05 13:25 34.51277 136.28934 15399 ft 331 kts 258°
2026-05-05 13:25 34.50923 136.26153 14971 ft 329 kts 258°
2026-05-05 13:26 34.50573 136.23420 14548 ft 327 kts 258°
2026-05-05 13:26 34.50221 136.20707 14118 ft 325 kts 257°
2026-05-05 13:26 34.49868 136.18011 13662 ft 324 kts 257°
2026-05-05 13:26 34.49512 136.15320 12988 ft 329 kts 258°
2026-05-05 13:27 34.49150 136.12577 12547 ft 328 kts 258°
2026-05-05 13:27 34.48835 136.09838 12113 ft 327 kts 263°
2026-05-05 13:27 34.48968 136.07081 11666 ft 329 kts 277°
2026-05-05 13:27 34.49608 136.04407 11234 ft 330 kts 286°
2026-05-05 13:28 34.50360 136.01781 10789 ft 329 kts 286°
2026-05-05 13:28 34.51106 135.99154 10348 ft 327 kts 286°
2026-05-05 13:28 34.51834 135.96570 10146 ft 318 kts 285°
2026-05-05 13:28 34.52534 135.94078 10010 ft 306 kts 285°
2026-05-05 13:29 34.53205 135.91692 9665 ft 301 kts 285°
2026-05-05 13:29 34.53891 135.89251 9294 ft 299 kts 285°
2026-05-05 13:29 34.54546 135.86906 8920 ft 296 kts 285°
2026-05-05 13:29 34.55204 135.84529 8522 ft 295 kts 285°
2026-05-05 13:30 34.55852 135.82179 8129 ft 293 kts 286°
2026-05-05 13:30 34.56498 135.79838 7733 ft 291 kts 286°
2026-05-05 13:30 34.57141 135.77499 7200 ft 294 kts 286°
2026-05-05 13:30 34.57799 135.75095 6437 ft 306 kts 286°
2026-05-05 13:31 34.58470 135.72649 5752 ft 303 kts 287°
2026-05-05 13:31 34.59128 135.70259 5225 ft 294 kts 287°
2026-05-05 13:31 34.59769 135.67937 4756 ft 284 kts 288°
2026-05-05 13:31 34.60476 135.65728 4279 ft 276 kts 299°
2026-05-05 13:32 34.61658 135.63965 3836 ft 266 kts 315°
2026-05-05 13:32 34.62938 135.62432 3519 ft 247 kts 315°
2026-05-05 13:32 34.64126 135.61005 3474 ft 229 kts 315°
2026-05-05 13:32 34.65229 135.59676 3314 ft 219 kts 314°
2026-05-05 13:33 34.66285 135.58402 3044 ft 214 kts 314°
2026-05-05 13:33 34.67343 135.57127 2773 ft 208 kts 314°
2026-05-05 13:33 34.68345 135.55919 2502 ft 198 kts 313°
2026-05-05 13:33 34.69300 135.54766 2228 ft 187 kts 313°
2026-05-05 13:34 34.70188 135.53693 1992 ft 174 kts 313°
2026-05-05 13:34 34.71006 135.52706 1749 ft 159 kts 313°
2026-05-05 13:34 34.71756 135.51800 1538 ft 152 kts 314°
2026-05-05 13:34 34.72257 135.51194 1402 ft 149 kts 314°
2026-05-05 13:35 34.72989 135.50308 1206 ft 147 kts 314°
2026-05-05 13:35 34.73714 135.49431 1005 ft 147 kts 314°
2026-05-05 13:35 34.74437 135.48554 800 ft 146 kts 315°
2026-05-05 13:35 34.75152 135.47688 634 ft 145 kts 316°
2026-05-05 13:36 34.75870 135.46830 445 ft 145 kts 315°
2026-05-05 13:36 34.76577 135.45965 266 ft 143 kts 315°
2026-05-05 13:36 34.77280 135.45110 91 ft 142 kts 315°
2026-05-05 13:36 34.77932 135.44320 51 ft 107 kts 314°
2026-05-05 13:37 34.78253 135.43933 53 ft 39 kts 315°
2026-05-05 13:37 34.78438 135.43759 51 ft 27 kts 334°
2026-05-05 13:37 34.78580 135.43699 50 ft 20 kts 345°
2026-05-05 13:37 34.78705 135.43702 50 ft 17 kts 26°
2026-05-05 13:38 34.78793 135.43792 48 ft 13 kts 43°
2026-05-05 13:38 34.78836 135.43841 50 ft 6 kts 43°
2026-05-05 13:38 34.78866 135.43875 48 ft 6 kts 47°
2026-05-05 13:38 34.78884 135.43914 50 ft 5 kts 70°
2026-05-05 13:39 34.78885 135.43935 49 ft 0 kts 91°
2026-05-05 13:39 34.78883 135.43942 48 ft 2 kts 103°
2026-05-05 13:39 34.78878 135.43957 49 ft 2 kts 118°
2026-05-05 13:39 34.78872 135.43967 50 ft 1 kts 124°
2026-05-05 13:40 34.78867 135.43973 49 ft 1 kts 131°
2026-05-05 13:40 34.78839 135.44011 48 ft 9 kts 134°
2026-05-05 13:40 34.78794 135.44063 49 ft 9 kts 136°
2026-05-05 13:40 34.78758 135.44119 50 ft 8 kts 101°
2026-05-05 13:41 34.78787 135.44171 50 ft 7 kts 37°
2026-05-05 13:41 34.78831 135.44199 47 ft 5 kts 25°
2026-05-05 13:41 34.78854 135.44212 50 ft 3 kts 26°
2026-05-05 13:41 34.78871 135.44222 50 ft 3 kts 26°
2026-05-05 13:42 34.78875 135.44224 50 ft 0 kts 26°